홈 사이트맵 즐겨찾기
ID/PW찾기  |  회원가입

List of Articles
번호 분류 제목 글쓴이 날짜 조회 수
공지 판매 오늘부터 하루 10개 등록 허용 합니다↓↓↓↓ 소리전자 2017.05.30 3416
공지 판매 계측기장비 장터필수 공지사항 35 소리전자 2005.07.09 85481
149489 판매 Q-SERIES LASER POWER SUPPLY QB-PS.COHERENT (L1S-OA200901)외2종 이희옥 2019.01.13 9
149488 인하 Tek Know TC600M Temperature Calibrator 이희옥 2019.01.13 14
149487 판매 pncys dc powersupply up-3005T DIGITAL DRP-9305D 30v5a 이희옥 2019.01.13 13
149486 인하 LCR Hi Tester Hioki 3522-50 이희옥 2019.01.13 38
149485 판매 화신 접지저항계(HS-E747)택포함3.5만 file 털보 2019.01.13 14
149484 판매 일제 팔콘면적계 택포함20만 file 털보 2019.01.13 4
149483 인하 ULVAC DA-121D-M 익사이팅 2019.01.13 36
149482 인하 실체현미경 Olympus SZH10 Research Stereo Microscope 2대 익사이팅 2019.01.13 68
» 판매 Hioki 8850 Memory Hi Corder 기록계 8942 모듈3개 file 김지현 2019.01.12 17
149480 판매 Agilent HP E4418A E4418B E4417A RF Power Meter 3종류 file 김지현 2019.01.12 54
149479 판매 Orbisphere Laboratories model 3600 analyzer file 강경나 2019.01.12 11
149478 판매 COLAR DIGITAL OSCILLOSCOPE (TDS544A) file sinbe 2019.01.12 75
149477 판매 DIGITAL MULTIMETER (YEW7542) file sinbe 2019.01.12 61
149476 판매 RF NETWORK ANALYZER (HP 8713B) file sinbe 2019.01.12 69
149475 판매 400MHz ANALOGE OSCILLOSCOPE (SS-7840) file sinbe 2019.01.12 58
149474 판매 FLUKE 85RF HIGH FREQUENCY PROBE 플루크 고주파 프로브 file 이원삼 2019.01.12 23
149473 완료 LG 오실로스코프 OS-310M--판매완료 file 이지희 2019.01.12 84
149472 판매 m ohm HiTESTER ( HIOKI 3540 ) file sinbe 2019.01.12 44
149471 판매 FLUKE 80K-6 HIGH VOLTAGE PROBE 플루크 고전압 프로브 file 이원삼 2019.01.12 12
149470 판매 DIGITAL OSCILLOSCOPE ( HP 54522A ) file sinbe 2019.01.12 61
149469 판매 HP/KEYSIGHT 8673D SIGNAL GENERATOR, 50 MHz - 26.0 GHz 신호 ... file 이원삼 2019.01.12 26
149468 판매 200MHz COMBISCOPE (PM3394B) file sinbe 2019.01.12 51
149467 판매 FLUKE i400s AC CURRENT CLAMP 플루크 i400s AC 전류 클램프 ! file 이원삼 2019.01.12 21
149466 판매 AC POWER SOURCE/ANALYZER ( HP6811A ) file sinbe 2019.01.12 53
149465 판매 DIGITAL MULTIMETER ( TK-4002 ) file sinbe 2019.01.12 50
149464 판매 UNIFIRE, WIRELESS SEARCH CAMERA w/ COLOR MONITOR 보어스코프 ! file 이원삼 2019.01.12 16
149463 판매 low energy RF shielded survey meter ( 440RF/D ) file sinbe 2019.01.12 24
149462 판매 Agilent/KEYSIGHT WIRESCOPE 350 ! file 이원삼 2019.01.12 21
149461 판매 FLUKE NETWORKS Series II NETWORK TESTERS 플루크 네트워크 테... file 이원삼 2019.01.12 20
149460 판매 TEKTRONIX THS730A DIGITAL 200MHz SCOPEMETER 스코프미터 200MHz ! file 이원삼 2019.01.12 28
Board Pagination Prev 1 ... 507 508 509 510 511 512 513 514 515 516 ... 5494 Next
/ 5494
회사소개 제휴문의 이용약관 개인정보취급방침 이메일주소무단수집거부 사이트맵